Flag for Germany Weather past 2 weeks in Fürth, Bavaria, Germany

Now
82 °F

Sunny.


Feels Like: 81 °F
Forecast: 63 / 94 °F
Wind: 6 mph from North

Location: Nuernberg

Current Time: Aug 5, 2015 at 3:35:02 PM

Latest Report: Aug 5, 2015 at 3:20 PM


Visibility: 10 mi

Pressure: 30.04 "Hg

Humidity: 35%

Dew point: 52 °F

Location of FürthLocation

Historic Weather in Fürth — Graph

°F

Fürth temperature yesterday

Maximum temperature yesterday: 90 °F (at 1:20 PM)
Minimum temperature yesterday: 61 °F (at 5:20 AM)
Average temperature yesterday: 73 °F

Past Weeks' High & Low Weather Summary

 TemperatureHumidityPressure
High97 °F (Jul 22, 3:50 PM)100% (Jul 23, 1:50 AM)30.15 "Hg (Jul 23, 1:50 AM)
Low43 °F (Jul 31, 5:50 AM)22% (Jul 22, 4:20 PM)29.68 "Hg (Jul 25, 12:50 AM)
Average68 °F60%29.95 "Hg
* Reported Jul 21 2:20 PM — Aug 5 2:20 PM, Fürth, Weather by CustomWeather, © 2015

Note: Actual official high and low records may vary slightly from our data, if they occured in-between our weather recording intervals... More about our weather records

Advertising

Fürth weather history for previous 24 hours

 ConditionsComfort  
Time TempWeatherWind HumidityBarometerVisibility
2:20 PM
Wed, Aug 5
81 °FPassing clouds.7 mph37%30.07 "HgN/A
1:50 PM79 °FPassing clouds.7 mph39%30.09 "HgN/A
1:20 PM79 °FSunny.6 mph37%30.09 "Hg10 mi
12:50 PM77 °FPassing clouds.7 mph39%30.09 "HgN/A
12:20 PM75 °FSunny.5 mph41%30.12 "Hg10 mi
11:50 AM73 °FSunny.5 mph44%30.12 "Hg10 mi
11:20 AM73 °FSunny.2 mph44%30.12 "Hg10 mi
10:50 AM72 °FSunny.2 mph47%30.15 "Hg10 mi
10:20 AM70 °FSunny.2 mph53%30.15 "Hg10 mi
9:50 AM68 °FSunny.3 mph56%30.15 "Hg10 mi
9:20 AM66 °FSunny.2 mph64%30.15 "Hg10 mi
8:50 AM64 °FSunny.2 mph68%30.15 "Hg10 mi
8:20 AM63 °FSunny.3 mph73%30.15 "Hg10 mi
7:50 AM61 °FPassing clouds.3 mph77%30.15 "HgN/A
7:20 AM61 °FSunny.1 mph77%30.12 "Hg10 mi
6:20 AM57 °FClear.1 mph88%30.12 "Hg10 mi
5:50 AM57 °FClear.2 mph82%30.12 "Hg10 mi
5:20 AM59 °FClear.3 mph82%30.12 "Hg10 mi
4:50 AM61 °FPassing clouds.2 mph77%30.12 "HgN/A
4:20 AM61 °FPassing clouds.1 mph77%30.12 "HgN/A
3:50 AM63 °FClear.2 mph73%30.12 "Hg10 mi
3:20 AM63 °FPassing clouds.5 mph73%30.12 "HgN/A
2:50 AM66 °FPassing clouds.6 mph64%30.12 "HgN/A
2:20 AM66 °FPassing clouds.5 mph73%30.12 "HgN/A
1:50 AM66 °FPassing clouds.2 mph83%30.12 "HgN/A
1:20 AM66 °FPassing clouds.6 mph83%30.12 "HgN/A
12:20 AM68 °FClear.6 mph78%30.09 "Hg10 mi
11:50 PM
Tue, Aug 4
68 °FPassing clouds.2 mph78%30.09 "HgN/A
11:20 PM68 °FPassing clouds.1 mph78%30.09 "HgN/A
10:50 PM68 °FPassing clouds.1 mph78%30.09 "HgN/A
10:20 PM68 °FPassing clouds.1 mph73%30.09 "HgN/A
9:50 PM68 °FSunny.2 mph78%30.07 "Hg10 mi
9:20 PM70 °FSunny.5 mph73%30.07 "Hg10 mi
8:50 PM72 °FPassing clouds.8 mph65%30.04 "HgN/A
8:20 PM72 °FSunny.9 mph65%30.04 "Hg10 mi
7:50 PM72 °FPassing clouds.10 mph69%30.04 "HgN/A
7:20 PM73 °FSunny.13 mph65%30.04 "Hg10 mi
6:50 PM72 °FSunny.12 mph65%30.04 "Hg10 mi
6:20 PM73 °FSunny.13 mph61%30.01 "Hg10 mi
5:50 PM72 °FLight rain. Clear.22 mph69%30.01 "HgN/A
5:20 PM79 °FSunny.25 mph48%29.98 "Hg10 mi
4:50 PM81 °FSunny.26 mph42%29.95 "Hg10 mi
4:20 PM86 °FSunny.25 mph38%29.95 "Hg10 mi
3:50 PM90 °FPassing clouds.10 mph29%29.92 "HgN/A
3:20 PM88 °FSunny.17 mph31%29.92 "Hg10 mi
Weather by CustomWeather, © 2015

See weather overviewHow to use our weather pages